Weather WX

World > North America > United States > Illinois

Ezra, Illinois Regional Weather

Lat: 37.90N, Lon: 88.92W
Wx Zone: ILZ081
Warning FLW WEATHER ALERT - (More Info. Click Here) Warning
Feedback

Ezra, IL Regional Weather

Expires:201906250300;;030655
ASUS43 KLOT 250209
RWRIL 

ILLINOIS REGIONAL WEATHER ROUNDUP
NATIONAL WEATHER SERVICE CHICAGO/ROMEOVILLE IL
900 PM CDT MON JUN 24 2019

NOTE: "FAIR" INDICATES FEW OR NO CLOUDS BELOW 12,000 FEET WITH NO
SIGNIFICANT WEATHER AND/OR OBSTRUCTIONS TO VISIBILITY.

* THESE STATIONS ARE NOT UNDER NWS QUALITY CONTROL. THEY ALSO MAY NOT
  REPORT WEATHER SUCH AS PRECIPITATION OR FOG.


ILZ064>066-069>071-074>076-080>082-084>086-088>090-092>094-250300-
SOUTH-CENTRAL ILLINOIS
  
CITY           SKY/WX    TMP DP  RH WIND       PRES   REMARKS
CARBONDALE     FAIR      74  62  66 W5        29.85R                  
CAIRO*         FAIR      77  68  73 SW8       29.86R                  
EFFINGHAM*     FAIR      72  60  65 SW6       29.84R                  
MARION         FAIR      75  64  68 W3        29.86R                  
MT. VERNON     FAIR     N/A N/A N/A W3        29.84R                  
CENTRALIA*     PTCLDY    73  63  71 W5        29.84R                  
SALEM*         FAIR      73  62  69 W5        29.84R                  
METROPOLIS*    FAIR      76  67  74 SW8       29.86S                  
$$


SKY/WX - Weather  TMP - Temperature  DP - Dew Point  RH - Relative Humidity
WIND - Wind Direction/Speed PRES - Barometric Pressure VSB - Visibility
WCI - Wind Chill Index E13G22 Wind - East Wind 13 mph/Gusts of 22 mph